{"data":{"norad_id":53813,"intl_designator":"2022-112A","name":"ZHONGXING-1E","alt_names":[],"object_type":"PAYLOAD","status":"ACTIVE","operator":null,"country":"PRC","launch_date":"2022-09-13","launch_site_code":"WSC","launch_vehicle":null,"mission":null,"orbit_class":"UNKNOWN","rcs_meters":null,"size_class":null,"mass_kg":null,"dimensions":null,"purposes":["comms"],"wikipedia_slug":null,"has_3d_model":false,"image_url":null,"decayed_at":null,"tle_current":{"epoch":"2026-05-25T04:07:52.533120Z","epoch_age_seconds":57278,"freshness":"FRESH","line1":"1 53813U 22112A   26145.17213580  .00000000  00000+0  00000+0 0  9991","line2":"2 53813   0.0117 292.1882 0000854  58.2275  35.7212  1.00270392 13614","mean_motion":1.00270392,"eccentricity":8.54e-5,"inclination_deg":0.0117,"raan_deg":292.1882,"arg_perigee_deg":58.2275,"mean_anomaly_deg":35.7212,"bstar":0,"rev_number":1361,"period_min":1436.1168549137,"perigee_km":35783.38457272,"apogee_km":35790.586375638,"semimajor_km":42165.122474179,"source":"CELESTRAK","updated_at":"2026-05-25T13:38:14.109985Z"}}}